FW7184 Weather Reports


Display with metric or nautical units.
time (UTC)temp
F
wind
direction
speed
MPH
gust
MPH
rain 1hr
in
rain 24hr
in
rain mn
in
humidity
%
barometer
mb
20260906125420 66 206 0.0 0.0 0.00 0.00 0.00 88 1015.7
20260906124920 66 0 2.0 2.0 0.00 0.00 0.00 89 1015.8
20260906124416 66 192 0.0 0.0 0.00 0.00 0.00 91 1015.8
20260906123910 65 241 1.0 1.0 0.00 0.00 0.00 91 1015.5
20260906123409 65 184 0.0 0.0 0.00 0.00 0.00 93 1015.7
20260906122904 65 201 0.0 0.0 0.00 0.00 0.00 92 1015.6
20260906122359 65 192 0.0 0.0 0.00 0.00 0.00 93 1015.8
20260906121856 64 202 0.0 1.0 0.00 0.00 0.00 94 1015.6
20260906121351 64 185 0.0 0.0 0.00 0.00 0.00 96 1015.7
20260906120847 64 192 0.0 0.0 0.00 0.00 0.00 96 1015.5
20260906120343 63 195 0.0 0.0 0.00 0.00 0.00 97 1015.4
20260906115839 63 195 0.0 0.0 0.00 0.00 0.00 96 1015.5
20260906115334 63 194 0.0 0.0 0.00 0.00 0.00 97 1015.6
20260906114833 63 170 0.0 0.0 0.00 0.00 0.00 97 1015.5
20260906114329 63 189 0.0 0.0 0.00 0.00 0.00 98 1015.4
20260906113824 62 187 0.0 0.0 0.00 0.00 0.00 99 1015.2
20260906113323 62 188 0.0 0.0 0.00 0.00 0.00 99 1015.2
20260906112818 62 192 0.0 0.0 0.00 0.00 0.00 99 1015.2
20260906112315 62 200 0.0 0.0 0.00 0.00 0.00 99 1015.2
20260906111814 62 283 0.0 0.0 0.00 0.00 0.00 99 1015.0
20260906111314 62 194 0.0 0.0 0.00 0.00 0.00 99 1015.1
20260906110809 62 193 0.0 0.0 0.00 0.00 0.00 99 1015.3
20260906110305 62 195 0.0 0.0 0.00 0.00 0.00 99 1014.9
20260906105804 62 201 0.0 0.0 0.00 0.00 0.00 99 1014.6
20260906105259 62 201 0.0 0.0 0.00 0.00 0.00 99 1014.9
20260906104755 62 209 0.0 0.0 0.00 0.00 0.00 99 1014.9
20260906104254 62 197 0.0 0.0 0.00 0.00 0.00 99 1014.5
20260906103752 62 208 0.0 0.0 0.00 0.00 0.00 99 1014.7
20260906103252 61 196 0.0 0.0 0.00 0.00 0.00 99 1014.6
20260906102748 61 201 0.0 0.0 0.00 0.00 0.00 99 1014.5
20260906102246 61 206 0.0 0.0 0.00 0.00 0.00 99 1014.5
20260906101742 61 200 0.0 0.0 0.00 0.00 0.00 99 1014.2
20260906101236 61 199 0.0 0.0 0.00 0.00 0.00 99 1014.2
20260906100732 62 201 0.0 0.0 0.00 0.00 0.00 99 1014.3
20260906100231 62 197 0.0 0.0 0.00 0.00 0.00 99 1013.9
20260906095726 62 202 0.0 0.0 0.00 0.00 0.00 99 1014.1
20260906095216 62 197 0.0 0.0 0.00 0.00 0.00 99 1014.0
20260906094714 62 197 0.0 0.0 0.00 0.00 0.00 99 1013.8
20260906094210 63 191 0.0 0.0 0.00 0.00 0.00 99 1014.0
20260906093707 63 196 0.0 0.0 0.00 0.00 0.00 99 1013.8
20260906093202 63 195 0.0 0.0 0.00 0.00 0.00 99 1014.1
20260906092657 63 217 0.0 0.0 0.00 0.00 0.00 99 1014.1
20260906092156 63 185 0.0 0.0 0.00 0.00 0.00 99 1014.1
20260906091653 63 196 0.0 0.0 0.00 0.00 0.00 99 1013.7
20260906091149 63 193 0.0 0.0 0.00 0.00 0.00 99 1013.8
20260906090645 63 195 0.0 0.0 0.00 0.00 0.00 99 1014.0
20260906090144 63 202 0.0 0.0 0.00 0.00 0.00 99 1013.8
20260906085643 63 206 0.0 0.0 0.00 0.00 0.00 99 1013.6
20260906085138 63 201 0.0 0.0 0.00 0.00 0.00 99 1013.6
20260906084638 63 204 0.0 0.0 0.00 0.00 0.00 99 1013.6
20260906084137 63 203 0.0 0.0 0.00 0.00 0.00 99 1013.4
20260906083632 63 196 0.0 0.0 0.00 0.00 0.00 99 1013.6
20260906083127 63 194 0.0 0.0 0.00 0.00 0.00 99 1013.5
20260906082623 63 198 0.0 0.0 0.00 0.00 0.00 99 1013.3
20260906082118 63 195 0.0 0.0 0.00 0.00 0.00 99 1013.3
20260906081614 63 200 0.0 0.0 0.00 0.00 0.00 99 1013.3
20260906081108 63 194 0.0 0.0 0.00 0.00 0.00 99 1013.3
20260906080606 62 190 0.0 0.0 0.00 0.00 0.00 99 1013.3
20260906075555 62 198 0.0 0.0 0.00 0.00 0.00 99 1013.2
20260906075050 62 198 0.0 0.0 0.00 0.00 0.00 99 1013.3
20260906074545 62 198 0.0 0.0 0.00 0.00 0.00 99 1013.5
20260906074043 62 204 0.0 0.0 0.00 0.00 0.00 99 1013.5
20260906073538 62 193 0.0 0.0 0.00 0.00 0.00 99 1013.3
20260906073034 61 196 0.0 0.0 0.00 0.00 0.00 99 1013.2
20260906072529 61 193 0.0 0.0 0.00 0.00 0.00 99 1013.2
20260906072025 61 195 0.0 0.0 0.00 0.00 0.00 99 1013.4
20260906071521 61 197 0.0 0.0 0.00 0.00 0.00 99 1013.4
20260906071016 61 202 0.0 0.0 0.00 0.00 0.00 99 1013.3
20260906070512 61 184 0.0 0.0 0.00 0.00 0.00 99 1013.4
20260906070008 60 198 0.0 0.0 0.00 0.00 0.00 99 1013.4
20260906065502 60 200 0.0 0.0 0.00 0.00 0.00 99 1013.4
20260906064957 60 200 0.0 0.0 0.00 0.00 0.00 99 1013.4
20260906064453 60 204 0.0 0.0 0.00 0.00 0.00 99 1013.3
20260906063948 60 196 0.0 0.0 0.00 0.00 0.00 99 1013.6
20260906063444 61 199 0.0 0.0 0.00 0.00 0.00 99 1013.7
20260906062943 61 194 0.0 0.0 0.00 0.00 0.00 99 1013.6
20260906062439 60 194 0.0 0.0 0.00 0.00 0.00 99 1013.6
20260906061933 60 196 0.0 0.0 0.00 0.00 0.00 99 1013.6
20260906061430 61 200 0.0 0.0 0.00 0.00 0.00 99 1013.6
20260906060924 61 196 0.0 0.0 0.00 0.00 0.00 99 1014.0
20260906060421 61 195 0.0 0.0 0.00 0.00 0.00 99 1013.7
20260906055917 61 196 0.0 0.0 0.00 0.00 0.00 99 1013.8
20260906055413 61 193 0.0 0.0 0.00 0.00 0.00 99 1013.6
20260906054908 61 196 0.0 0.0 0.00 0.00 0.00 99 1013.6
20260906054403 61 196 0.0 0.0 0.00 0.00 0.00 99 1013.5
20260906053859 61 197 0.0 0.0 0.00 0.00 0.00 99 1013.2
20260906053354 62 198 0.0 0.0 0.00 0.00 0.00 99 1013.6
20260906052850 62 199 0.0 0.0 0.00 0.00 0.00 99 1013.7
20260906052346 62 195 0.0 0.0 0.00 0.00 0.00 98 1013.6
20260906051843 62 194 0.0 0.0 0.00 0.00 0.00 98 1013.7
20260906051342 62 197 0.0 0.0 0.00 0.00 0.00 98 1013.5
20260906050839 62 197 0.0 1.0 0.00 0.00 0.00 98 1013.6
20260906050333 62 190 0.0 0.0 0.00 0.00 0.00 98 1013.5
20260906045832 62 196 0.0 0.0 0.00 0.00 0.00 98 1013.6
20260906045326 62 196 0.0 0.0 0.00 0.00 0.00 98 1013.6
20260906044823 62 196 0.0 0.0 0.00 0.00 0.00 98 1013.7
20260906044323 62 194 0.0 0.0 0.00 0.00 0.00 98 1013.6
20260906043819 62 190 0.0 0.0 0.00 0.00 0.00 97 1013.8
20260906043315 62 196 0.0 0.0 0.00 0.00 0.00 97 1013.5
20260906042814 63 199 0.0 0.0 0.00 0.00 0.00 97 1013.6
20260906042314 63 185 0.0 0.0 0.00 0.00 0.00 97 1013.6
20260906041809 63 194 0.0 0.0 0.00 0.00 0.00 97 1013.5
20260906041304 63 198 0.0 0.0 0.00 0.00 0.00 97 1013.6
20260906040759 63 194 0.0 0.0 0.00 0.00 0.00 97 1013.7
20260906040255 63 191 0.0 0.0 0.00 0.00 0.00 97 1013.6
20260906035750 63 187 0.0 0.0 0.00 0.00 0.00 97 1013.5
20260906035246 63 191 0.0 0.0 0.00 0.00 0.00 97 1013.3
20260906034746 63 184 0.0 0.0 0.00 0.00 0.00 97 1013.4
20260906034240 63 196 0.0 0.0 0.00 0.00 0.00 97 1013.5
20260906033736 63 190 0.0 0.0 0.00 0.00 0.00 97 1013.3
20260906033236 63 195 0.0 0.0 0.00 0.00 0.00 97 1013.4
20260906032733 63 194 0.0 0.0 0.00 0.00 0.00 96 1013.4
20260906032232 63 193 0.0 0.0 0.00 0.00 0.00 96 1013.3
20260906031728 63 182 0.0 0.0 0.00 0.00 0.00 96 1013.3
20260906031223 63 196 0.0 0.0 0.00 0.00 0.00 96 1013.0
20260906030723 63 190 0.0 0.0 0.00 0.00 0.00 95 1013.1
20260906030218 64 188 0.0 0.0 0.00 0.00 0.00 95 1012.9
20260906025717 64 189 0.0 0.0 0.00 0.00 0.00 94 1013.1
20260906025212 64 188 0.0 0.0 0.00 0.00 0.00 94 1013.0
20260906024711 64 194 0.0 0.0 0.00 0.00 0.00 93 1013.1
20260906024210 64 196 0.0 0.0 0.00 0.00 0.00 93 1013.2
20260906023706 64 194 0.0 0.0 0.00 0.00 0.00 92 1013.1
20260906023201 64 196 0.0 0.0 0.00 0.00 0.00 92 1013.1
20260906022656 65 191 0.0 0.0 0.00 0.00 0.00 91 1013.0
20260906022152 65 197 0.0 0.0 0.00 0.00 0.00 90 1013.3
20260906021647 66 196 0.0 0.0 0.00 0.00 0.00 89 1013.0
20260906021146 66 187 0.0 0.0 0.00 0.00 0.00 88 1013.3
20260906020641 66 196 0.0 0.0 0.00 0.00 0.00 87 1013.1
20260906020136 67 195 0.0 0.0 0.00 0.00 0.00 86 1013.1
20260906015630 67 197 0.0 0.0 0.00 0.00 0.00 85 1012.9
20260906015128 67 198 0.0 0.0 0.00 0.00 0.00 84 1013.0
20260906014623 68 197 0.0 0.0 0.00 0.00 0.00 84 1012.8
20260906014120 68 196 0.0 0.0 0.00 0.00 0.00 84 1013.1
20260906013614 68 194 0.0 0.0 0.00 0.00 0.00 82 1012.8
20260906013110 68 189 0.0 0.0 0.00 0.00 0.00 82 1012.7
20260906012604 68 188 0.0 1.0 0.00 0.00 0.00 82 1012.9
20260906012059 68 293 0.0 0.0 0.00 0.00 0.00 82 1012.6
20260906011555 68 251 1.0 1.0 0.00 0.00 0.00 82 1012.8
20260906011055 68 181 0.0 0.0 0.00 0.00 0.00 83 1012.7
20260906010550 68 188 0.0 0.0 0.00 0.00 0.00 83 1012.7
20260906010046 68 186 0.0 0.0 0.00 0.00 0.00 83 1012.7
20260906005540 68 197 0.0 0.0 0.00 0.00 0.00 82 1012.5
20260906005039 68 188 0.0 0.0 0.00 0.00 0.00 82 1012.4
20260906004538 68 189 0.0 0.0 0.00 0.00 0.00 82 1012.5
20260906004033 68 189 0.0 0.0 0.00 0.00 0.00 81 1012.5
20260906003528 69 180 0.0 0.0 0.00 0.00 0.00 80 1012.5
20260906003024 69 177 0.0 0.0 0.00 0.00 0.00 81 1012.5
20260906002519 68 194 0.0 1.0 0.00 0.00 0.00 81 1012.5
20260906002014 68 175 0.0 1.0 0.00 0.00 0.00 82 1012.5
20260906001509 68 177 1.0 1.0 0.00 0.00 0.00 81 1012.4
20260906001003 68 190 0.0 0.0 0.00 0.00 0.00 82 1012.1
20260906000459 69 176 0.0 0.0 0.00 0.00 0.00 81 1012.1
20260905235954 69 181 0.0 0.0 0.00 0.00 0.00 81 1012.1
20260905235454 69 187 0.0 0.0 0.00 0.00 0.00 80 1012.2
20260905234949 69 173 0.0 0.0 0.00 0.00 0.00 80 1011.8
20260905234445 69 186 1.0 1.0 0.00 0.00 0.00 79 1011.8
20260905233944 70 166 0.0 0.0 0.00 0.00 0.00 78 1012.2
20260905233434 70 186 0.0 0.0 0.00 0.00 0.00 77 1011.6
20260905232933 70 143 0.0 1.0 0.00 0.00 0.00 77 1012.0
20260905232429 71 242 1.0 1.0 0.00 0.00 0.00 76 1011.9
20260905231924 71 189 0.0 0.0 0.00 0.00 0.00 76 1012.0
20260905231420 71 168 0.0 1.0 0.00 0.00 0.00 75 1011.9
20260905230917 72 222 0.0 1.0 0.00 0.00 0.00 74 1011.8
20260905230414 72 186 0.0 0.0 0.00 0.00 0.00 73 1011.7
20260905225913 72 339 3.0 3.0 0.00 0.00 0.00 73 1011.9
20260905225409 73 30 1.0 1.0 0.00 0.00 0.00 72 1011.6
20260905224903 73 210 0.0 1.0 0.00 0.00 0.00 72 1011.6
20260905224400 73 255 0.0 0.0 0.00 0.00 0.00 71 1011.2
20260905223854 74 206 1.0 1.0 0.00 0.00 0.00 70 1011.5
20260905223352 74 325 1.0 2.0 0.00 0.00 0.00 69 1011.5
20260905222851 74 165 2.0 2.0 0.00 0.00 0.00 68 1011.3
20260905222350 74 189 0.0 0.0 0.00 0.00 0.00 68 1011.3
20260905221847 75 29 2.0 2.0 0.00 0.00 0.00 67 1011.2
20260905221343 75 165 1.0 2.0 0.00 0.00 0.00 65 1011.5
20260905220839 75 8 3.0 6.0 0.00 0.00 0.00 66 1011.2
20260905220335 76 24 2.0 2.0 0.00 0.00 0.00 66 1011.2
20260905215834 76 18 2.0 3.0 0.00 0.00 0.00 66 1011.3
20260905215330 76 28 2.0 2.0 0.00 0.00 0.00 65 1011.1
20260905214827 76 163 0.0 1.0 0.00 0.00 0.00 65 1011.1
20260905214321 76 166 0.0 1.0 0.00 0.00 0.00 64 1010.9
20260905213816 76 305 1.0 1.0 0.00 0.00 0.00 64 1011.0
20260905213312 77 178 0.0 0.0 0.00 0.00 0.00 67 1011.1
20260905212807 77 189 0.0 0.0 0.00 0.00 0.00 64 1011.2
20260905212307 77 267 1.0 1.0 0.00 0.00 0.00 64 1011.2
20260905211801 77 123 0.0 1.0 0.00 0.00 0.00 63 1011.0
20260905211256 77 357 2.0 2.0 0.00 0.00 0.00 64 1010.8
20260905210753 77 199 1.0 1.0 0.00 0.00 0.00 62 1010.9
20260905210252 77 187 2.0 2.0 0.00 0.00 0.00 62 1010.8
20260905205751 77 263 0.0 0.0 0.00 0.00 0.00 62 1011.0
20260905205246 77 220 0.0 1.0 0.00 0.00 0.00 63 1010.9
20260905204745 77 35 2.0 2.0 0.00 0.00 0.00 64 1010.7
20260905204242 77 181 0.0 0.0 0.00 0.00 0.00 64 1010.8
20260905203741 77 316 2.0 3.0 0.00 0.00 0.00 62 1010.6
20260905203236 77 235 2.0 2.0 0.00 0.00 0.00 62 1010.6
20260905202732 77 178 0.0 0.0 0.00 0.00 0.00 62 1010.8
20260905202227 77 211 0.0 1.0 0.00 0.00 0.00 61 1010.5
20260905201722 77 30 1.0 1.0 0.00 0.00 0.00 62 1010.6
20260905201223 77 116 0.0 0.0 0.00 0.00 0.00 61 1010.6
20260905200717 78 53 1.0 1.0 0.00 0.00 0.00 61 1010.8
20260905200208 78 336 0.0 0.0 0.00 0.00 0.00 60 1010.8
20260905195706 78 347 1.0 2.0 0.00 0.00 0.00 59 1010.8
20260905195201 78 73 1.0 1.0 0.00 0.00 0.00 58 1010.9
20260905194656 79 337 1.0 2.0 0.00 0.00 0.00 58 1010.6
20260905194155 79 177 1.0 1.0 0.00 0.00 0.00 57 1010.6
20260905193650 79 193 0.0 0.0 0.00 0.00 0.00 58 1010.5
20260905193145 78 210 1.0 2.0 0.00 0.00 0.00 59 1010.7
20260905192640 79 189 0.0 1.0 0.00 0.00 0.00 58 1010.8
20260905192137 78 206 0.0 0.0 0.00 0.00 0.00 57 1010.8
20260905191636 79 67 1.0 1.0 0.00 0.00 0.00 57 1010.7
20260905191134 79 202 1.0 1.0 0.00 0.00 0.00 56 1010.7
20260905190633 78 344 0.0 1.0 0.00 0.00 0.00 59 1010.8
20260905190132 78 170 1.0 1.0 0.00 0.00 0.00 60 1010.8
20260905185631 78 224 1.0 2.0 0.00 0.00 0.00 59 1011.0
20260905185126 77 246 0.0 1.0 0.00 0.00 0.00 60 1010.9
20260905184620 78 72 3.0 3.0 0.00 0.00 0.00 58 1010.9
20260905184119 78 300 2.0 2.0 0.00 0.00 0.00 61 1010.9
20260905183618 77 202 0.0 1.0 0.00 0.00 0.00 62 1011.1
20260905183114 77 6 2.0 2.0 0.00 0.00 0.00 63 1010.9
20260905182614 78 325 1.0 1.0 0.00 0.00 0.00 60 1011.1
20260905182113 78 296 1.0 1.0 0.00 0.00 0.00 61 1011.2
20260905181608 77 28 1.0 1.0 0.00 0.00 0.00 61 1011.2
20260905181107 78 144 0.0 0.0 0.00 0.00 0.00 60 1011.1
20260905180602 77 178 0.0 1.0 0.00 0.00 0.00 63 1011.3
20260905180058 78 100 1.0 1.0 0.00 0.00 0.00 62 1011.1
20260905175556 79 261 0.0 1.0 0.00 0.00 0.00 61 1011.1
20260905175052 78 265 1.0 1.0 0.00 0.00 0.00 62 1011.2
20260905174548 77 98 1.0 1.0 0.00 0.00 0.00 65 1011.7
20260905174043 77 122 0.0 0.0 0.00 0.00 0.00 62 1011.3
20260905173540 78 164 0.0 1.0 0.00 0.00 0.00 63 1011.6
20260905173035 78 63 2.0 2.0 0.00 0.00 0.00 62 1011.6
20260905172533 77 1 3.0 3.0 0.00 0.00 0.00 62 1011.5
20260905172029 77 23 1.0 2.0 0.00 0.00 0.00 64 1011.7
20260905171525 76 191 1.0 2.0 0.00 0.00 0.00 63 1011.6
20260905171021 77 142 1.0 1.0 0.00 0.00 0.00 64 1011.8
20260905170518 78 18 2.0 3.0 0.00 0.00 0.00 62 1011.2
20260905170012 77 209 1.0 2.0 0.00 0.00 0.00 62 1011.6
20260905165507 77 22 1.0 2.0 0.00 0.00 0.00 63 1011.5
20260905165002 77 209 1.0 1.0 0.00 0.00 0.00 66 1011.6
20260905164502 76 209 1.0 1.0 0.00 0.00 0.00 67 1011.5
20260905163956 76 210 0.0 1.0 0.00 0.00 0.00 68 1011.6
20260905163453 75 28 2.0 3.0 0.00 0.00 0.00 69 1011.6
20260905162949 75 243 1.0 2.0 0.00 0.00 0.00 67 1011.7
20260905162444 75 232 1.0 1.0 0.00 0.00 0.00 69 1011.7
20260905161939 75 133 0.0 0.0 0.00 0.00 0.00 68 1011.7
20260905161438 75 86 0.0 1.0 0.00 0.00 0.00 67 1011.3
20260905160936 75 208 1.0 1.0 0.00 0.00 0.00 68 1011.6
20260905160430 75 24 2.0 2.0 0.00 0.00 0.00 68 1011.2
20260905155929 75 182 0.0 0.0 0.00 0.00 0.00 69 1011.6
20260905155424 75 338 4.0 5.0 0.00 0.00 0.00 68 1011.6
20260905154923 74 40 0.0 1.0 0.00 0.00 0.00 70 1011.7
20260905154419 74 110 0.0 1.0 0.00 0.00 0.00 70 1011.8
20260905153914 74 100 1.0 2.0 0.00 0.00 0.00 68 1011.8
20260905153410 73 65 1.0 1.0 0.00 0.00 0.00 69 1011.6
20260905152910 73 166 1.0 1.0 0.00 0.00 0.00 69 1011.6
20260905152409 74 349 1.0 2.0 0.00 0.00 0.00 70 1011.6
20260905151904 74 80 1.0 2.0 0.00 0.00 0.00 69 1011.6
20260905151400 74 291 1.0 1.0 0.00 0.00 0.00 70 1011.6
20260905150855 74 183 1.0 1.0 0.00 0.00 0.00 71 1011.9
20260905150354 73 135 0.0 1.0 0.00 0.00 0.00 71 1011.7
20260905145852 74 334 1.0 1.0 0.00 0.00 0.00 72 1011.8
20260905145346 75 221 0.0 0.0 0.00 0.00 0.00 71 1011.7
20260905144845 75 261 1.0 1.0 0.00 0.00 0.00 71 1011.7
20260905144341 75 144 0.0 1.0 0.00 0.00 0.00 70 1011.7
20260905143839 74 192 2.0 3.0 0.00 0.00 0.00 71 1011.6
20260905143334 73 229 1.0 1.0 0.00 0.00 0.00 73 1011.7
20260905142834 73 111 0.0 1.0 0.00 0.00 0.00 74 1011.8
20260905142332 73 200 0.0 1.0 0.00 0.00 0.00 73 1011.6
20260905141829 72 192 2.0 3.0 0.00 0.00 0.00 76 1011.7
20260905141324 71 116 1.0 2.0 0.00 0.00 0.00 78 1011.6
20260905140820 71 26 3.0 5.0 0.00 0.00 0.00 78 1011.6
20260905140319 71 110 0.0 1.0 0.00 0.00 0.00 79 1011.6
20260905135818 70 253 2.0 3.0 0.00 0.00 0.00 79 1011.6
20260905135315 70 189 2.0 3.0 0.00 0.00 0.00 80 1011.5
20260905134810 70 196 0.0 1.0 0.00 0.00 0.00 81 1011.7
20260905134309 70 17 2.0 3.0 0.00 0.00 0.00 81 1011.7
20260905133809 70 5 4.0 5.0 0.00 0.00 0.00 81 1011.7
20260905133304 69 199 0.0 0.0 0.00 0.00 0.00 82 1011.5
20260905132803 69 2 3.0 5.0 0.00 0.00 0.00 84 1011.5
20260905132259 69 200 1.0 1.0 0.00 0.00 0.00 84 1011.9
20260905131753 69 345 3.0 3.0 0.00 0.00 0.00 83 1011.7
20260905131249 68 205 0.0 0.0 0.00 0.00 0.00 84 1011.5
20260905130744 68 4 1.0 2.0 0.00 0.00 0.00 85 1011.8
20260905130243 68 232 1.0 1.0 0.00 0.00 0.00 86 1011.8